This demonstration page uses our WeatherBlox Daily Observations layout. Learn more.

Left ArrowRight Arrow

36.17497, -115.13722

Hourly Observations for November 20, 2020

Temp ( °F °C ) Dew Point ( °F °C ) Humidity (%) Winds ( mph kmh ) Pressure ( in mb ) Visibility ( mi km ) Precip ( " mm )
12:53 am 00:53 Clear 55 12.8 31 -0.6 40 40 Calm 30.13 1020 10 16 0.00 0.00
1:53 am 01:53 Clear 54 12.2 31 -0.6 42 42 NW 3 6 30.14 1021 10 16 0.00 0.00
2:53 am 02:53 Clear 55 12.8 31 -0.6 40 40 NNW 10 17 30.13 1020 10 16 0.00 0.00
3:53 am 03:53 Clear 55 12.8 31 -0.6 40 40 Calm 30.15 1021 10 16 0.00 0.00
4:53 am 04:53 Clear 52 11.1 29 -1.7 41 41 Calm 30.18 1022 10 16 0.00 0.00
5:53 am 05:53 Clear 51 10.6 30 -1.1 44 44 Calm 30.19 1023 10 16 0.00 0.00
6:53 am 06:53 Sunny 51 10.6 30 -1.1 44 44 Calm 30.22 1023 10 16 0.00 0.00
7:53 am 07:53 Sunny 55 12.8 32 0 42 42 Calm 30.24 1024 10 16 0.00 0.00
8:53 am 08:53 Sunny 61 16.1 31 -0.6 32 32 Calm 30.25 1024 10 16 0.00 0.00
9:53 am 09:53 Sunny 66 18.9 23 -5 19 19 NNW 7 11 30.23 1024 10 16 0.00 0.00
10:53 am 10:53 Sunny 67 19.4 25 -3.9 20 20 Calm 30.23 1024 10 16 0.00 0.00
11:53 am 11:53 Sunny 68 20 26 -3.3 21 21 Calm 30.19 1023 10 16 0.00 0.00
12:53 pm 12:53 Sunny 69 20.6 25 -3.9 19 19 Calm 30.18 1022 10 16 0.00 0.00
1:53 pm 13:53 Sunny 70 21.1 26 -3.3 19 19 NE 5 7 30.16 1021 10 16 0.00 0.00
2:53 pm 14:53 Sunny 70 21.1 25 -3.9 18 18 NNE 3 6 30.16 1021 10 16 0.00 0.00
3:53 pm 15:53 Sunny 69 20.6 25 -3.9 19 19 Calm 30.17 1022 10 16 0.00 0.00
4:53 pm 16:53 Clear 68 20 25 -3.9 20 20 Calm 30.17 1022 10 16 0.00 0.00
5:53 pm 17:53 Clear 67 19.4 26 -3.3 21 21 Calm 30.18 1022 10 16 0.00 0.00
6:53 pm 18:53 Clear 65 18.3 27 -2.8 24 24 NW 3 6 30.18 1022 10 16 0.00 0.00
7:53 pm 19:53 Clear 63 17.2 29 -1.7 28 28 NW 6 9 30.18 1022 10 16 0.00 0.00
8:53 pm 20:53 Clear 62 16.7 28 -2.2 28 28 NW 5 7 30.17 1022 10 16 0.00 0.00
9:53 pm 21:53 Clear 62 16.7 30 -1.1 30 30 WNW 6 9 30.18 1022 10 16 0.00 0.00
10:53 pm 22:53 Clear 62 16.7 25 -3.9 24 24 NW 7 11 30.17 1022 10 16 0.00 0.00
11:53 pm 23:53 Clear 59 15 26 -3.3 28 28 Calm 30.17 1022 10 16 0.00 0.00

Powered by AerisWeather